EW1558 Weather Reports


Display with metric or nautical units.
time (UTC)temp
F
wind
direction
speed
MPH
gust
MPH
rain 1hr
in
rain 24hr
in
rain mn
in
humidity
%
barometer
mb
20260505010004 67 250 4.0 9.0 0.00 0.01 0.01 62 996.0
20260505004504 68 212 1.0 7.0 0.00 0.01 0.01 62 995.4
20260505003003 69 215 4.0 7.0 0.00 0.01 0.01 59 995.1
20260505001501 69 232 2.0 7.0 0.00 0.01 0.01 59 995.0
20260505000002 70 232 5.0 10.0 0.00 0.01 0.01 56 994.7
20260504234614 70 225 2.0 6.0 0.01 0.01 0.01 53 995.0
20260504233108 68 107 0.0 6.0 0.01 0.01 0.01 59 994.9
20260504231558 68 253 4.0 7.0 0.01 0.01 0.01 62 995.4
20260504230057 69 259 4.0 15.0 0.01 0.01 0.01 57 995.1
20260504224608 78 102 0.0 5.0 0.00 0.00 0.00 33 995.4
20260504223055 80 321 3.0 10.0 0.00 0.00 0.00 31 995.1
20260504221555 80 298 1.0 7.0 0.00 0.00 0.00 34 995.2
20260504220052 81 265 2.0 8.0 0.00 0.00 0.00 30 995.2
20260504214551 81 53 1.0 9.0 0.00 0.00 0.00 28 995.4
20260504213116 80 171 0.0 8.0 0.00 0.00 0.00 28 995.6
20260504211548 82 318 2.0 8.0 0.00 0.00 0.00 26 995.7
20260504210049 82 252 2.0 12.0 0.00 0.00 0.00 26 995.7
20260504204548 82 292 2.0 12.0 0.00 0.00 0.00 27 995.9
20260504203049 81 100 2.0 11.0 0.00 0.00 0.00 28 996.0
20260504201542 81 26 2.0 13.0 0.00 0.00 0.00 26 996.2
20260504200039 81 307 3.0 14.0 0.00 0.00 0.00 28 996.5
20260504194544 79 192 1.0 14.0 0.00 0.00 0.00 29 996.9
20260504193043 80 199 2.0 10.0 0.00 0.00 0.00 30 997.0
20260504191534 80 234 4.0 13.0 0.00 0.00 0.00 30 997.3
20260504190032 79 222 3.0 9.0 0.00 0.00 0.00 31 997.3
20260504184532 79 32 2.0 11.0 0.00 0.00 0.00 32 997.3
20260504183028 78 185 2.0 11.0 0.00 0.00 0.00 32 997.3
20260504181527 78 186 2.0 7.0 0.00 0.00 0.00 33 997.5
20260504180022 77 76 3.0 9.0 0.00 0.00 0.00 33 997.5
20260504174521 76 323 4.0 11.0 0.00 0.00 0.00 33 997.8
20260504173031 76 287 1.0 10.0 0.00 0.00 0.00 34 998.2
20260504171522 76 325 5.0 13.0 0.00 0.00 0.00 33 998.3
20260504090121 51 298 0.0 3.0 0.00 0.00 0.00 78 1002.0
20260504081555 53 309 0.0 2.0 0.00 0.00 0.00 75 1001.8
20260504050022 59 198 0.0 4.0 0.00 0.00 0.00 65 1003.6
20260504044535 59 174 0.0 3.0 0.00 0.00 0.00 66 1003.5
20260504043023 58 219 0.0 3.0 0.00 0.00 0.00 66 1003.6
20260504041520 59 284 0.0 2.0 0.00 0.00 0.00 66 1003.6
20260504040020 59 142 0.0 5.0 0.00 0.00 0.00 65 1003.8
20260504034531 59 205 0.0 4.0 0.00 0.00 0.00 65 1003.9
20260504033025 60 227 0.0 4.0 0.00 0.00 0.00 64 1004.0
20260504031519 60 229 1.0 4.0 0.00 0.00 0.00 64 1004.1
20260504030018 60 240 0.0 2.0 0.00 0.00 0.00 64 1004.2
20260504024521 60 240 0.0 1.0 0.00 0.00 0.00 63 1004.2
20260504023017 60 240 0.0 2.0 0.00 0.00 0.00 62 1004.2
20260504021520 60 223 0.0 1.0 0.00 0.00 0.00 61 1004.0
20260504020017 60 223 0.0 2.0 0.00 0.00 0.00 60 1004.0
20260504014518 61 223 0.0 2.0 0.00 0.00 0.00 58 1003.8
20260504013022 63 223 0.0 1.0 0.00 0.00 0.00 55 1003.6
20260504011513 64 223 0.0 0.0 0.00 0.00 0.00 53 1003.5